Regional Weather Roundup
Issued by NWS

Home | Current Version | Previous Version | Text Only | Print | Product List | Glossary Off
Versions: 1 2 3 4 5 6 7 8 9 10 11 12 13 14 15 16 17 18 19 20 21 22 23 24 25 26 27 28 29 30 31 32 33 34 35 36 37 38 39 40 41 42 43 44 45 46 47 48 49 50

000
ASUS43 KDMX 291007
RWRIA

WEATHER ROUNDUP FOR IOWA
NATIONAL WEATHER SERVICE DES MOINES IA
500 AM CDT SUN MAR 29 2015

NOTE: "FAIR" INDICATES FEW OR NO CLOUDS BELOW 12,000 FEET WITH NO
SIGNIFICANT WEATHER AND/OR OBSTRUCTIONS TO VISIBILITY.

* - THESE STATIONS ARE NOT NWS STATIONS...THUS NOT UNDER NWS
QUALITY CONTROL.  THEY ALSO DO NOT REPORT WEATHER SUCH
AS PRECIPITATION OR FOG.

IAZ001>003-012>014-020>022-031>034-043>046-291100-
   NORTHWEST IOWA

CITY           SKY/WX    TMP DP  RH WIND       PRES   REMARKS
CARROLL *      CLOUDY    39  34  81 S16       29.82S WCI  30
CHEROKEE *     CLOUDY    39  34  81 S13G22    29.76F WCI  32
DENISON *      MOCLDY    41  34  75 SW16G28   29.83R
LE MARS *      CLEAR     43  36  75 S21G29    29.74F
ORANGE CITY *  CLEAR     43  36  75 SW17G25   29.72F
SHELDON *      CLEAR     39  34  81 S25G32    29.68F WCI  28
SIOUX CITY     MOCLDY    44  33  65 SW12G23   29.79F
SPENCER        CLOUDY    39  33  79 S25G32    29.72F WCI  28
STORM LAKE *   CLEAR     39  34  81 S22G29    29.77F WCI  29
$$

IAZ055>058-069>071-079>083-090>094-291100-
   SOUTHWEST IOWA

CITY           SKY/WX    TMP DP  RH WIND       PRES   REMARKS
ATLANTIC *     LGT RAIN  41  36  81 S12G17    29.87S
AUDUBON *      LGT RAIN  39  34  81 S16G22    29.84S WCI  30
CLARINDA *     MIX PCPN  41  34  75 S17G26    29.88F
COUNCIL BLFS * PTCLDY    41  36  81 SW14      29.90R
CRESTON *      MOCLDY    37  34  87 S20       29.88F WCI  27
HARLAN  *      CLOUDY    39  39 100 SW13      29.90R WCI  32
LAMONI         CLOUDY    38  31  76 S12G22    29.94F WCI  30
RED OAK *      CLOUDY    41  36  81 S16G22    29.85S
SHENANDOAH *   CLOUDY    41  36  81 S16       29.85R
$$

IAZ047>049-059>061-072>074-084-291100-
   CENTRAL IOWA

CITY           SKY/WX    TMP DP  RH WIND       PRES   REMARKS
AMES           MIX PCPN  36  27  69 S16       29.89F WCI  26
ANKENY *       CLOUDY    37  30  75 S6        29.96R WCI  33
CHARITON *     CLOUDY    37  30  75 S14G25    29.94S WCI  29
DES MOINES     LGT RAIN  39  29  67 SW12      29.96R WCI  32
GRINNELL*      PTCLDY    32  25  74 SE16      29.94F WCI  21
KNOXVILLE *    MOCLDY    36  27  69 S16       29.92F WCI  26
MARSHALLTOWN   LGT RAIN  33  24  69 SE17      29.89F WCI  22
PELLA *        DRIZZLE   36  30  80 S10       29.96F WCI  28
PERRY *        LGT RAIN  39  34  81 SE13      29.85F WCI  32
$$

IAZ004>006-015-016-023>025-035-036-291100-
   NORTH CENTRAL IOWA

CITY           SKY/WX    TMP DP  RH WIND       PRES   REMARKS
ALGONA *       CLOUDY    36  34  93 S26G36    29.75F WCI  23
CLARION *      FLURRIES  34  30  86 S25G33    29.81F WCI  21
ESTHERVILLE    CLOUDY    34  31  88 S21G28    29.72F WCI  22
FORT DODGE *   CLOUDY    36  28  75 S15G25    29.80F WCI  26
MASON CITY     LGT RAIN  34  28  79 S22       29.84F WCI  22
FOREST CITY *  MIX PCPN  32  30  93 SE20      29.79F WCI  20
IOWA FALLS *   MOCLDY    32  27  80 S16       29.89F WCI  21
$$

IAZ007>011-017>019-026>030-037>042-050>054-066-291100-
   NORTHEAST IOWA

CITY           SKY/WX    TMP DP  RH WIND       PRES   REMARKS
CEDAR RAPIDS   PTCLDY    31  21  66 S14G23    30.00S WCI  21
CHARLES CITY * MOCLDY    32  23  69 S23G30    29.86F WCI  19
CLINTON *      PTCLDY    30  19  64 S15       30.08F WCI  19
DECORAH *      CLOUDY    32  19  59 S17G25    29.91F WCI  21
DUBUQUE        PTCLDY    30  19  63 S21G26    30.00F WCI  17
MONTICELLO *   CLEAR     32  21  64 S15       30.02S WCI  22
OELWEIN *      PTCLDY    32  21  64 S21       29.97R WCI  20
WATERLOO       MOCLDY    32  22  66 S18       29.93F WCI  20
$$

IAZ064-065-067-068-078-291100-
   EAST CENTRAL IOWA

CITY           SKY/WX    TMP DP  RH WIND       PRES   REMARKS
DAVENPORT      CLEAR     32  17  54 S20G30    30.06F WCI  20
IOWA CITY      PTCLDY    32  21  64 S13       30.05F WCI  22
MT. PLEASANT * CLEAR     30  21  69 SE15      30.02F WCI  19
MUSCATINE *    CLEAR     34  21  60 SE14      30.04F WCI  24
QUAD CITIES    CLEAR     33  18  53 S16G24    30.05F WCI  23
$$

IAZ062-063-075>077-085>089-095>099-291100-
   SOUTHEAST IOWA

CITY           SKY/WX    TMP DP  RH WIND       PRES   REMARKS
BURLINGTON     CLEAR     33  22  63 S16       30.04F WCI  23
FAIRFIELD *    CLEAR     34  23  64 S15G24    30.02R WCI  24
FORT MADISON * CLEAR     30  23  74 S10       30.05F WCI  21
KEOKUK *       CLEAR     34  25  69 SE10      30.04F WCI  26
OSKALOOSA *      N/A     32  25  74 S16       29.99S WCI  21
CENTERVILLE *  CLEAR     36  30  80 S12       30.00R WCI  27
OTTUMWA        CLEAR     34  24  67 S17G23    29.98F WCI  23
WASHINGTON *   CLEAR     32  23  69 S12G18    30.03S WCI  23
$$

ABBREVIATIONS USED IN REMARKS
   TC - TEMPERATURES IN CELSIUS
  WCI - WIND CHILL INDEX
   HX - HEAT INDEX
  VSB - VISIBILITY
$$




USA.gov is the U.S. government's official web portal to all federal, state and local government web resources and services.